Location: Caltech
(34.1382°N, 118.1253°W)
Time: 16:56:26
(UTC-07:00)

SL-08 RB Rocket - Visible Passes

Search period start: 04 August 2015 00:00
Search period end: 14 August 2015 00:00
Orbit: 649 x 686 km, 98.1° (Epoch: 04 August)

Date Brightness Start Highest point End Pass type
(mag) Time Alt. Az. Time Alt. Az. Time Alt. Az.
04 Aug 5.0 21:49:10 26° ENE 21:49:10 26° ENE 21:52:33 10° NNE visible
04 Aug 6.0 23:27:20 19° WNW 23:27:20 19° WNW 23:29:19 10° NW visible
05 Aug 4.3 22:21:34 47° NNE 22:21:34 47° NNE 22:25:03 10° N visible
06 Aug 5.8 21:15:49 12° ENE 21:15:52 12° ENE 21:17:39 10° NE visible
06 Aug 5.0 22:53:58 37° NW 22:53:58 37° NW 22:56:58 10° NNW visible
07 Aug 5.0 21:48:13 25° ENE 21:48:13 25° ENE 21:51:23 10° NNE visible
07 Aug 6.1 23:26:23 19° WNW 23:26:23 19° WNW 23:28:13 10° NW visible
08 Aug 4.5 22:20:38 43° NNE 22:20:38 43° NNE 22:23:53 10° N visible
09 Aug 5.8 21:14:52 12° ENE 21:14:52 12° ENE 21:16:24 10° NE visible
09 Aug 5.2 22:53:02 35° NW 22:53:02 35° NW 22:55:50 10° NNW visible
10 Aug 5.2 21:47:17 24° NE 21:47:17 24° NE 21:50:13 10° NNE visible
10 Aug 6.2 23:25:26 18° WNW 23:25:26 18° WNW 23:27:08 10° NW visible
11 Aug 4.7 22:19:41 39° NNE 22:19:41 39° NNE 22:22:45 10° N visible
12 Aug 5.9 21:13:56 11° ENE 21:13:56 11° ENE 21:15:07 10° NE visible
12 Aug 5.3 22:52:06 32° NW 22:52:06 32° NW 22:54:42 10° NNW visible
13 Aug 5.3 21:46:21 23° NE 21:46:21 23° NE 21:49:02 10° NNE visible
13 Aug 6.2 23:24:31 17° NW 23:24:31 17° NW 23:26:02 10° NW visible
